User: anonymous   Login
Location: Unspecified
(0.0000°N, 0.0000°E)
Time: 18:59:18
(UTC+00:00)
Language:

STARLINK-32696 - Orbit

View from above orbital plane
View from above orbital plane
View from above satellite
View from above satellite

Ground track
Ground track

The orbit is defined by the following mean orbital elements,

1 62310U          26145.41769632 +.00000000 +00000-0 +49379-3 0 00006
2 62310  53.1593 197.3647 0001101  85.0590 275.0538 15.34403287    04
Epoch (UTC): 25 May 2026 10:01:28
Eccentricity: 0.0001101
inclination: 53.1593°
perigee height: 462 km
apogee height: 463 km
right ascension of ascending node: 197.3647°
argument of perigee: 85.0590°
revolutions per day: 15.34403287
mean anomaly at epoch: 275.0538°

The dashed part of the orbit path shows where the satellite is in the earth's shadow,  

DLR